Wind_Speed
6 6 7 7 8 8 8 9 8 8 8 7 6 6 5 5 6 7 7 9 10 11 13 14 15 15 14 14 15 17 18 19 20 21 21 22 22 23 24 26 27 29 30 30 30 31 31 31 31 30 28 26 26 26 27 27 25 25 26 27 29 29 30 34 39 43 45 43 41 39 37 37 36 35 35 36 36 37 39 38 37 39 39 36 37
10 10 10 10 10 10 9 9 9 8 9 9 9 8 8 8 8 8 9 10 11 12 13 13 14 13 13 13 15 16 18 19 20 21 22 22 22 22 22 23 24 25 26 26 27 29 31 32 33 33 31 29 27 24 24 26 26 25 26 26 28 29 29 32 36 40 43 44 42 41 40 39 38 36 35 35 36 37 39 40 39 40 39 36 37
12 12 12 12 12 11 11 10 9 9 10 10 11 11 12 12 13 12 12 13 13 13 13 13 12 12 12 14 16 17 19 20 21 23 24 24 24 23 22 22 23 24 24 24 24 25 27 29 30 31 31 29 26 24 24 25 26 26 27 29 31 31 31 32 35 38 41 43 43 41 41 42 40 38 36 34 35 38 40 41 41 42 41 39 38
12 12 13 14 14 13 13 12 11 11 12 12 12 12 13 14 15 15 15 15 15 14 14 14 13 13 13 15 17 19 20 22 22 24 25 25 26 25 25 24 23 23 23 23 23 23 23 24 25 25 26 25 24 23 23 25 26 27 28 30 31 32 33 33 35 39 41 43 44 42 42 42 41 40 39 37 36 38 40 40 43 45 45 42 40
12 13 13 14 15 16 15 14 13 13 14 14 14 14 14 15 15 16 16 17 17 17 16 16 16 16 16 17 19 20 21 22 23 23 24 26 26 27 27 27 26 24 23 22 22 22 21 21 21 21 21 21 21 21 22 24 27 28 29 29 29 30 32 33 35 39 42 44 45 44 42 42 41 41 41 40 38 38 40 42 45 49 49 46 43
12 13 14 15 16 16 16 15 14 15 15 15 15 15 15 15 16 17 17 18 18 18 18 18 18 19 19 19 20 21 22 23 24 25 26 27 28 28 29 28 28 26 24 22 21 21 21 20 20 19 19 20 21 21 22 23 26 28 30 30 29 29 29 31 33 37 41 43 44 45 43 42 43 44 43 41 39 40 42 45 48 50 52 51 47
12 13 14 15 16 15 15 15 14 15 15 15 16 16 16 16 17 17 18 18 19 19 19 19 19 20 20 20 21 22 23 24 25 27 28 29 29 30 30 30 29 27 26 24 22 22 22 21 20 20 20 22 23 24 24 25 27 29 30 30 28 27 28 28 30 34 41 43 44 45 45 44 43 45 45 41 39 41 43 46 49 51 52 53 50
12 14 14 14 14 13 14 13 13 14 14 15 17 18 18 18 18 18 19 19 20 19 19 19 20 20 21 21 22 23 24 25 27 28 29 30 30 30 30 29 29 28 27 25 24 23 22 22 21 20 20 22 23 25 25 26 27 29 30 30 28 27 27 28 28 31 37 44 46 45 45 45 43 43 41 39 39 43 45 47 48 49 49 51 51
12 13 14 13 11 11 11 12 12 13 14 16 18 19 18 18 19 19 20 21 21 20 20 20 20 20 21 22 23 24 25 26 28 30 30 31 31 31 30 29 29 28 27 26 24 23 22 22 22 21 21 22 23 24 25 26 27 28 29 30 30 28 27 28 29 30 31 36 43 45 44 44 43 41 41 41 42 44 44 45 48 48 48 49 51
11 13 14 13 11 10 10 11 12 13 14 17 19 19 19 19 20 21 22 22 22 22 22 22 22 22 22 23 24 25 26 26 28 29 29 30 31 31 31 31 30 29 28 27 26 24 23 22 21 21 22 23 24 24 25 26 27 28 28 29 30 31 29 28 29 30 30 30 34 40 44 45 44 44 45 46 44 41 42 45 48 48 47 49 52
12 14 15 14 12 11 12 12 13 14 16 18 19 20 20 21 21 22 23 23 23 24 24 24 24 24 25 25 26 26 27 27 28 28 29 29 31 31 32 32 32 30 28 28 28 27 25 23 22 21 22 24 26 26 25 26 26 27 29 30 30 32 33 32 31 29 29 29 29 31 38 44 46 45 44 44 44 42 42 44 47 48 49 51 52
15 17 19 18 17 16 15 15 16 17 18 20 21 21 22 22 23 23 23 24 24 24 24 24 25 25 25 26 27 27 28 28 29 30 30 29 30 31 32 33 34 33 30 28 28 28 27 26 24 22 23 25 26 27 27 27 26 26 28 31 32 33 32 33 33 31 29 29 31 31 33 36 41 43 44 44 44 43 42 43 45 47 49 52 53
19 21 22 22 21 20 19 19 20 20 21 21 21 22 22 22 23 23 23 23 23 23 22 22 22 23 24 25 26 27 28 29 30 31 32 31 30 30 31 33 34 34 33 31 30 30 30 29 28 26 27 27 27 28 28 28 28 27 27 29 31 33 32 31 31 32 31 31 33 35 35 35 38 42 45 45 43 42 42 44 46 47 49 51 53
22 23 24 23 22 21 21 21 22 21 21 20 20 20 21 22 22 22 22 23 23 23 22 22 22 22 23 24 25 26 27 29 31 32 33 33 32 31 31 32 34 35 35 34 33 34 34 33 32 32 31 31 31 31 30 29 28 28 28 28 29 31 31 31 30 30 31 32 35 37 36 36 38 40 41 43 44 44 43 44 46 47 48 49 49
23 24 25 24 23 22 21 21 22 22 21 21 20 21 21 22 22 23 23 24 24 23 23 22 22 22 22 23 24 25 27 28 30 32 34 34 33 32 32 32 34 36 37 36 36 36 36 35 35 35 35 34 35 36 35 33 30 28 29 28 28 29 29 30 30 29 28 30 33 35 36 38 38 38 38 39 44 47 45 43 42 41 42 45 47
23 23 24 24 24 24 24 24 24 24 25 24 24 24 23 23 23 24 24 24 24 24 23 23 23 23 23 23 23 24 25 27 29 31 33 35 35 34 33 33 35 37 38 38 38 38 38 37 36 36 36 36 37 37 38 36 33 29 28 28 28 28 29 29 29 29 28 28 29 31 33 36 37 36 36 37 40 42 43 42 40 39 41 45 47
22 22 23 23 24 24 25 26 26 26 27 28 27 26 25 24 24 24 25 25 26 26 26 26 26 25 25 24 24 24 25 27 29 31 34 36 37 36 35 35 35 37 39 40 40 39 38 36 35 35 36 37 38 39 39 38 36 33 30 27 26 27 27 28 30 29 27 26 26 27 28 31 32 32 34 38 40 38 39 43 44 43 44 46 46
21 21 22 22 23 24 25 26 27 27 27 28 28 27 25 24 25 25 26 28 28 28 28 27 28 27 26 25 24 24 25 26 29 31 35 37 37 37 37 36 36 38 39 40 41 40 38 37 35 33 34 36 37 38 39 39 38 36 33 30 27 25 24 26 30 30 27 24 23 24 25 28 29 30 31 36 39 38 39 43 46 45 45 47 48
19 20 20 21 22 23 24 25 26 26 27 27 28 27 26 25 26 26 28 29 30 30 29 29 29 29 27 25 25 25 25 27 29 32 35 38 38 37 37 37 36 37 39 40 40 40 40 39 36 34 32 33 35 36 37 37 37 36 34 33 30 26 22 22 26 28 27 24 22 21 22 25 27 29 29 30 34 38 40 41 44 45 47 49 49
17 18 18 19 20 21 22 23 24 25 26 26 27 27 27 26 26 27 28 30 30 31 31 31 31 30 28 26 26 26 26 27 29 31 35 38 40 39 38 37 36 35 36 38 39 39 40 40 38 35 32 31 32 34 34 34 34 33 32 32 32 29 25 23 22 24 24 23 21 20 20 22 24 27 28 27 29 36 39 39 41 45 47 48 50
15 15 16 18 18 19 20 21 22 24 25 25 25 26 27 26 27 27 28 29 30 31 32 33 32 31 29 27 26 27 27 27 29 31 35 37 40 41 40 37 34 33 33 34 36 38 39 39 38 36 32 30 30 31 31 32 32 30 29 29 30 30 29 26 22 20 21 20 19 19 20 21 22 24 26 27 28 31 34 36 37 40 44 47 50
13 13 14 16 16 17 18 19 21 22 23 24 24 25 26 26 26 27 27 28 29 30 32 33 33 32 31 30 28 27 27 28 29 31 33 35 38 41 39 34 31 31 31 33 34 35 36 36 36 34 32 29 27 28 29 30 30 29 27 26 25 25 24 23 20 16 14 15 16 18 18 18 19 21 23 25 27 30 33 33 33 37 42 48 49
12 12 12 14 15 15 16 17 19 20 22 23 23 24 25 25 25 26 26 27 28 30 32 33 33 33 33 32 31 29 28 28 29 30 32 34 37 39 36 31 30 30 30 32 33 33 34 34 34 33 31 29 27 27 28 29 30 29 27 25 23 21 18 14 11 8 6 9 13 14 14 14 15 16 18 21 23 28 33 35 35 36 40 44 47
11 10 10 11 13 13 14 15 16 18 20 21 22 22 23 24 24 25 26 27 28 29 31 33 33 34 34 34 33 32 30 30 30 30 31 33 36 36 33 30 29 30 30 31 32 32 33 33 32 32 32 31 29 28 28 28 29 29 28 26 24 21 19 15 9 4 5 1 4 6 8 11 12 13 15 16 19 22 28 35 38 37 38 40 43
10 10 9 9 10 11 11 12 13 15 17 20 21 22 22 23 24 24 25 27 28 29 31 32 33 34 35 35 35 34 33 32 31 30 31 33 34 34 32 29 29 29 30 30 31 31 32 32 32 32 32 33 33 32 31 30 30 30 30 30 29 27 26 25 20 16 16 16 11 6 3 4 6 9 11 13 15 19 23 29 34 37 39 39 40
9 9 8 7 8 8 9 10 11 13 15 18 20 21 21 22 23 24 25 27 28 29 30 31 32 32 34 35 35 35 34 33 32 31 31 32 33 33 32 30 29 30 30 31 31 31 32 33 34 34 34 35 36 36 36 34 32 32 33 33 33 32 30 29 27 24 25 25 23 18 13 8 4 4 6 9 13 16 18 22 26 31 36 38 40
9 9 7 6 6 6 7 8 9 11 13 16 18 19 20 21 22 23 24 26 29 30 30 31 32 32 33 34 34 34 33 33 32 31 31 32 32 32 31 31 31 31 32 33 33 34 34 34 34 35 36 36 37 38 38 37 36 36 36 35 34 33 31 30 30 28 26 26 25 23 20 15 9 5 3 4 7 8 10 13 17 22 28 32 34
8 7 6 5 4 5 5 5 7 10 11 14 16 17 18 19 21 22 23 25 28 29 30 31 31 32 33 33 33 33 32 31 30 29 30 31 31 32 31 30 31 32 33 34 35 36 36 35 35 37 39 40 41 41 41 40 40 40 40 37 35 33 32 31 31 31 29 27 25 24 23 22 20 17 12 7 6 4 0 4 9 15 20 23 24
7 6 6 5 4 4 4 4 6 7 10 13 15 16 16 18 19 20 22 24 26 27 28 29 29 30 31 32 32 31 30 28 26 25 26 28 29 30 29 28 29 30 32 34 35 37 39 39 39 40 41 42 43 43 43 42 41 41 41 41 39 37 35 34 33 31 29 28 28 27 27 26 26 24 20 18 17 14 9 4 4 9 12 15 18
6 6 6 5 4 3 3 4 4 5 8 12 14 14 15 16 17 18 20 22 24 26 27 27 27 28 29 29 30 29 28 26 24 23 24 25 26 27 27 25 25 27 29 31 35 38 40 42 42 42 41 41 42 43 43 42 42 41 42 42 42 41 39 37 35 32 29 28 28 28 28 28 28 26 24 23 23 21 18 15 12 11 12 14 15
8 6 5 5 4 2 2 3 3 5 8 12 13 13 14 14 15 16 18 20 22 23 24 25 25 26 27 27 28 28 28 26 24 22 23 23 24 24 25 24 25 26 27 29 33 36 38 40 42 42 42 41 41 41 41 42 42 41 41 41 42 42 42 40 38 35 32 30 29 28 27 27 27 27 26 25 25 23 22 22 22 22 22 23 23
9 7 6 6 4 2 2 3 4 6 8 10 11 12 13 13 13 14 16 18 20 21 22 23 23 24 24 25 26 27 29 29 26 23 23 23 23 23 24 23 23 24 26 29 32 34 35 37 39 40 41 41 41 41 41 41 41 41 40 40 41 42 42 41 39 38 37 35 33 32 30 28 26 24 23 24 26 28 28 28 28 29 30 30 29
9 9 7 7 5 2 2 3 4 6 8 9 10 12 13 13 12 13 15 16 18 19 20 22 22 22 23 23 24 26 28 30 29 26 24 23 23 23 23 22 22 23 25 29 31 32 32 34 35 37 38 39 40 41 41 40 40 39 39 40 40 40 39 39 38 39 39 38 36 34 33 32 30 27 24 22 22 24 26 28 29 30 31 32 32
9 9 8 7 5 3 4 5 5 6 8 8 9 12 13 13 12 12 13 15 17 18 19 20 21 22 22 22 22 24 26 28 29 28 25 24 24 23 22 22 22 23 24 27 30 31 31 32 33 35 36 36 37 39 40 40 39 38 38 38 38 37 37 37 38 39 39 39 37 35 33 32 33 33 32 29 26 25 23 23 23 25 26 28 29
8 9 8 7 5 3 3 4 4 5 6 7 8 10 12 12 11 11 11 13 15 16 18 19 20 21 21 21 21 22 24 26 28 28 27 25 25 24 24 25 25 25 25 26 27 29 29 30 30 32 34 35 35 36 37 38 39 38 38 37 37 37 37 37 38 38 38 38 38 36 34 32 32 33 33 33 32 31 29 27 25 25 24 23 22
6 8 9 8 5 3 2 3 3 2 3 4 6 8 11 12 11 10 10 11 13 15 16 17 19 19 20 20 20 21 22 24 26 27 27 26 26 26 27 28 27 25 25 26 26 26 27 28 28 29 31 32 33 34 35 36 37 37 37 36 36 36 36 36 36 37 37 37 37 36 35 34 33 32 31 32 32 31 30 29 28 27 26 24 22
5 8 10 8 5 3 2 2 1 0 1 3 4 5 8 10 11 10 10 10 11 13 14 16 17 18 18 19 19 20 20 21 23 24 25 26 27 27 27 27 26 24 23 24 24 25 26 26 27 28 29 29 31 32 33 33 34 35 35 35 34 34 35 34 34 34 35 36 36 35 34 33 33 32 32 32 32 31 30 28 27 27 25 24 23
6 9 10 9 6 4 4 3 3 3 2 1 3 4 5 7 9 10 10 9 9 11 12 14 15 17 18 18 18 19 19 19 20 22 24 26 26 27 26 26 26 24 23 22 23 24 24 24 26 26 26 27 28 30 31 32 33 33 33 33 33 33 33 33 33 33 34 34 34 34 33 32 31 31 32 32 32 31 30 29 27 26 25 24 24
9 10 11 10 7 5 5 5 5 5 4 2 2 3 3 4 7 9 9 8 8 9 11 12 14 16 17 18 17 18 19 19 19 21 23 24 25 26 26 26 26 25 23 22 23 23 23 23 24 25 25 25 26 27 28 29 30 31 31 31 31 32 32 32 32 32 33 34 33 32 32 31 29 29 29 30 30 29 29 28 27 26 25 24 23
11 12 13 11 9 7 7 6 6 6 6 3 2 2 3 3 5 7 8 8 8 8 9 11 12 14 16 17 17 17 18 18 18 20 21 23 23 24 24 25 25 25 24 23 24 24 23 22 22 23 24 24 24 25 26 27 28 29 29 29 29 29 29 29 29 30 30 31 31 31 30 29 27 27 27 27 27 27 26 26 24 23 23 23 21
12 14 14 12 9 8 7 6 6 6 5 3 2 2 2 3 4 5 7 8 8 8 9 10 10 12 14 16 17 17 17 17 17 18 19 21 21 22 22 23 23 24 24 24 24 23 23 22 21 21 21 21 22 23 25 26 26 27 27 27 27 27 26 26 26 26 27 28 28 28 27 26 25 24 24 24 23 23 23 23 22 21 20 20 19
12 14 14 12 9 7 6 6 6 6 5 4 3 2 3 4 4 5 5 6 8 9 9 8 9 10 13 15 16 16 16 16 16 17 18 19 19 20 20 20 21 22 23 23 23 22 22 23 23 22 21 21 21 23 24 25 26 26 25 24 24 25 24 23 23 23 24 25 25 25 25 24 23 22 21 20 20 20 20 20 20 19 19 18 17
12 13 14 13 11 9 7 7 7 6 5 4 4 3 3 4 5 6 6 5 6 8 9 8 8 9 11 13 14 14 14 15 15 16 17 18 18 19 19 19 19 19 20 21 21 21 21 21 22 22 22 22 22 24 26 26 26 25 23 22 22 22 21 20 21 22 22 23 23 23 23 23 22 20 18 18 17 17 17 17 17 17 17 17 16
12 14 15 14 13 11 10 9 8 8 7 6 6 5 5 5 6 7 7 7 7 8 8 8 8 9 10 12 13 13 13 14 14 15 16 17 17 18 18 18 18 18 19 19 20 21 21 20 20 21 21 22 23 24 26 26 25 23 21 20 20 20 19 18 19 20 21 21 22 22 22 22 21 18 17 16 16 15 15 15 15 14 13 14 14
10 14 16 16 14 13 12 10 10 9 9 7 7 7 6 6 7 8 8 8 8 8 9 9 8 8 9 11 12 12 12 12 13 14 15 16 16 17 17 17 17 17 18 18 19 20 21 21 20 20 20 21 23 25 26 25 23 21 19 19 19 19 18 17 17 18 20 21 22 22 23 23 21 17 14 14 14 13 12 12 12 11 11 10 11
10 13 16 17 16 15 14 12 11 11 11 10 9 8 8 7 7 8 8 9 9 9 9 9 8 8 9 10 11 11 12 12 12 13 13 14 15 15 16 17 16 16 17 17 18 19 20 20 20 20 19 20 22 24 25 24 22 20 18 18 17 17 17 16 16 17 19 20 22 23 23 23 22 18 14 11 10 10 10 9 9 9 9 8 8
10 12 15 17 17 15 15 14 13 13 13 12 11 10 9 8 8 7 8 8 9 9 9 9 8 8 9 10 11 12 12 12 12 12 12 13 13 14 15 16 16 15 16 17 17 18 19 19 19 18 18 19 21 23 23 23 22 20 18 17 16 16 15 15 16 17 18 19 21 22 23 24 23 20 16 11 8 7 7 8 8 7 7 6 5
10 11 13 15 16 15 15 14 14 14 13 13 12 11 10 9 8 7 8 8 8 8 8 8 8 8 9 10 11 12 13 13 12 12 12 12 12 12 14 15 16 15 15 15 16 17 18 18 17 17 18 19 20 21 22 23 21 20 19 17 16 15 15 14 15 15 16 18 19 21 22 22 22 20 18 15 11 6 5 6 7 6 5 5 4
12 12 12 14 15 16 16 15 15 14 13 13 13 13 11 10 9 9 9 8 8 7 8 8 8 9 10 10 11 12 13 13 13 12 12 12 12 11 12 13 14 14 14 14 14 15 16 16 16 17 18 19 20 21 22 22 21 20 19 18 17 16 15 14 14 15 15 16 18 19 19 20 20 19 18 16 14 9 5 3 4 5 5 5 4
16 15 14 14 15 15 16 16 17 16 14 13 14 14 13 12 11 11 11 10 10 9 9 9 10 10 10 11 11 12 13 14 14 13 13 12 12 11 11 11 12 13 13 12 12 13 14 14 15 15 17 18 19 20 21 21 21 21 19 18 17 16 15 14 14 14 14 15 17 18 18 18 18 18 18 17 15 12 8 4 3 3 3 4 4
19 18 17 17 16 15 16 17 18 19 18 17 16 15 14 13 13 13 13 13 12 12 12 12 12 12 12 12 12 12 13 14 14 14 14 13 12 11 11 11 11 11 11 11 11 11 12 13 13 14 15 16 17 18 20 20 21 21 20 18 17 16 15 14 14 14 14 15 16 17 17 17 17 17 18 18 17 14 11 7 5 4 3 3 4
Wind_Direction
78 71 62 51 43 39 35 34 40 50 59 60 56 57 49 31 16 5 354 349 351 352 350 352 356 355 348 340 336 334 331 328 325 323 322 321 318 314 308 301 296 293 290 287 287 287 288 289 289 288 288 284 281 283 286 285 285 283 278 275 275 274 270 264 259 260 261 257 251 249 246 242 242 246 246 244 242 236 232 230 230 232 229 225 225
81 75 69 63 56 52 47 43 43 46 49 45 38 34 28 20 14 2 353 352 353 352 352 354 356 354 348 342 339 338 337 336 335 333 332 333 332 329 325 318 312 306 300 296 291 286 285 286 286 286 288 289 285 282 284 285 285 283 280 278 278 277 274 270 265 261 260 258 252 247 245 243 241 244 245 243 243 240 233 228 228 230 231 228 226
80 75 71 68 65 64 62 58 54 49 46 42 35 29 24 19 18 15 12 9 3 0 359 358 355 351 345 342 339 338 339 339 338 337 336 337 337 337 335 330 325 318 311 305 299 294 290 288 287 285 287 292 292 287 282 282 283 284 283 282 281 279 277 275 270 264 260 259 254 248 245 243 241 242 244 245 245 243 237 231 228 228 229 228 225
76 72 70 70 69 69 69 67 63 57 52 47 42 37 31 27 26 28 27 24 22 19 14 9 5 359 353 350 347 345 345 344 343 342 341 340 340 340 339 338 335 329 322 314 307 303 299 296 294 291 290 293 294 291 286 281 281 282 280 278 278 279 280 280 275 269 262 257 253 249 245 242 240 240 242 244 244 242 239 236 231 228 227 226 224
69 67 68 69 69 69 69 69 66 62 58 54 51 45 40 37 35 35 33 31 30 28 26 22 18 15 11 8 4 0 357 355 353 352 349 348 347 346 343 341 339 335 329 323 317 312 308 305 303 300 297 294 292 291 288 282 280 279 278 278 278 279 280 280 278 270 261 255 252 249 245 242 239 238 239 241 241 239 238 237 234 230 227 225 223
69 70 69 67 67 68 69 69 67 65 63 60 57 52 47 44 42 39 36 33 32 31 30 29 27 26 24 21 17 13 9 5 3 1 358 355 353 351 348 344 342 340 337 331 326 321 317 313 309 305 300 295 289 285 283 281 278 278 279 281 282 282 280 280 281 272 261 254 251 249 246 242 238 235 235 236 238 237 234 233 233 231 227 224 222
75 73 67 64 65 67 69 70 68 65 62 59 57 53 51 49 45 42 37 34 33 32 31 31 30 29 26 24 21 16 13 9 7 5 2 359 357 354 351 349 346 345 344 341 335 329 324 319 315 309 302 296 291 287 283 281 278 276 278 281 283 283 281 283 285 277 264 255 249 246 243 241 238 234 231 233 238 238 234 231 231 229 227 226 225
78 71 64 63 66 68 70 70 67 64 58 54 52 51 52 52 49 44 39 35 34 32 31 30 29 27 25 23 20 17 14 12 9 7 4 2 359 356 353 352 351 348 347 347 344 337 330 325 320 314 308 302 297 292 287 285 283 278 275 277 280 281 283 284 284 278 266 254 247 243 240 237 236 232 229 231 233 231 230 231 232 231 230 230 228
78 70 66 69 74 74 74 71 67 64 58 52 49 50 52 52 49 45 40 37 35 33 31 28 26 25 23 21 19 17 15 16 14 10 7 4 1 359 357 355 353 351 349 348 347 344 339 332 326 319 313 307 300 293 287 283 283 280 276 275 275 276 280 282 282 282 275 259 246 239 234 233 234 230 227 229 231 231 231 232 233 233 233 231 229
78 72 72 79 87 87 81 76 71 67 58 52 50 51 52 51 47 43 40 37 36 34 32 29 27 24 22 20 18 17 16 17 15 10 8 6 3 2 1 359 357 354 351 349 347 347 345 339 330 322 316 310 304 297 289 282 279 277 274 273 272 273 275 277 279 281 283 273 253 238 231 231 233 230 227 229 232 234 236 234 230 229 229 229 228
84 78 78 85 92 90 84 78 72 67 60 55 55 55 53 50 46 42 39 36 34 32 30 29 28 25 23 20 18 17 17 15 12 8 7 6 4 3 3 2 1 358 354 351 349 347 346 344 338 330 324 319 313 306 299 292 285 279 273 269 267 268 270 272 273 274 276 275 267 251 237 231 229 228 230 233 235 236 238 237 231 227 225 225 226
91 84 81 84 87 87 84 80 75 70 65 61 59 56 53 49 45 41 38 35 32 29 27 25 24 22 21 19 17 15 14 13 10 7 6 5 4 3 3 3 3 1 358 356 353 350 348 346 345 342 338 333 326 317 309 301 294 287 279 270 265 264 265 266 268 269 268 266 265 262 252 241 233 230 233 237 238 237 237 238 234 230 227 226 226
91 83 80 80 81 82 81 79 77 73 69 65 60 56 52 48 44 40 37 34 31 28 26 23 21 19 17 16 15 13 10 9 7 5 5 4 4 3 3 3 3 3 2 1 358 356 352 348 348 349 348 343 335 327 319 309 302 294 286 276 268 264 263 262 262 264 264 262 259 258 257 255 247 241 239 239 240 238 237 237 237 233 229 229 230
86 80 77 75 76 77 78 77 76 74 70 66 61 57 52 48 44 40 36 32 29 28 26 23 21 18 15 13 12 10 7 6 4 3 2 2 3 4 4 3 4 4 4 4 3 1 357 353 351 351 350 348 345 339 331 322 313 303 295 286 275 267 263 261 261 263 263 261 258 255 255 256 256 252 246 241 240 241 241 239 238 234 232 233 233
84 78 74 73 73 74 75 76 74 71 67 63 59 56 53 49 45 40 36 32 29 27 26 25 23 19 15 12 10 8 6 4 3 2 1 2 2 3 4 4 4 5 5 6 6 4 359 356 354 351 350 350 349 346 340 333 325 314 304 296 286 275 265 260 261 263 262 260 259 257 255 255 257 258 254 246 241 242 244 245 245 242 239 236 231
85 78 73 71 71 70 70 70 68 64 61 58 57 55 52 49 46 42 38 35 32 30 29 28 26 23 18 14 12 9 6 5 5 4 5 4 3 2 3 3 3 4 5 6 6 5 1 357 354 351 349 349 349 348 344 338 332 323 313 303 294 283 270 263 262 262 261 260 259 260 258 257 257 259 256 251 248 245 242 241 242 242 238 232 226
87 79 73 70 69 68 65 63 62 60 57 55 54 53 51 48 45 41 38 36 35 34 33 30 27 24 21 18 16 12 7 7 9 8 8 7 5 3 2 2 2 3 4 5 5 4 2 358 354 350 349 349 348 347 345 341 337 331 323 312 301 290 277 268 265 263 260 258 259 261 262 260 258 258 257 252 249 246 238 233 232 231 230 227 223
91 82 74 71 69 67 63 60 58 57 55 54 52 50 49 46 43 40 37 36 36 34 33 31 28 26 24 22 19 15 12 12 12 11 8 6 6 5 3 1 1 1 2 3 3 2 1 360 356 352 349 348 347 346 345 342 339 337 332 324 312 299 287 275 268 263 256 253 254 258 262 261 256 253 254 253 250 246 240 236 233 230 228 228 225
93 84 77 73 69 66 63 59 56 54 53 53 51 49 47 45 42 40 37 35 35 33 31 30 28 28 27 25 22 18 16 16 14 11 7 5 6 7 5 2 1 1 1 1 1 1 1 360 359 356 351 348 347 347 345 343 341 340 338 332 322 310 296 280 269 260 252 248 251 256 263 264 257 249 248 250 251 249 245 241 238 233 232 231 226
96 86 78 74 70 66 62 57 54 53 50 49 49 47 45 44 42 40 37 35 34 32 30 29 28 28 27 26 24 21 20 19 15 11 8 5 5 6 7 5 3 1 1 0 360 1 1 0 360 358 354 350 349 349 348 346 345 343 343 339 331 321 309 292 273 258 250 250 256 262 265 263 257 249 246 248 250 250 247 243 241 238 236 232 226
99 88 80 75 71 66 61 56 52 50 47 45 46 45 43 41 40 38 36 34 33 33 31 29 29 28 26 25 25 24 22 19 16 12 9 6 4 4 7 9 7 3 2 1 2 3 2 1 1 360 357 354 352 353 353 352 350 350 350 345 336 326 319 311 293 267 251 249 258 266 267 262 255 248 248 250 250 248 247 245 245 244 241 236 230
103 93 83 77 71 65 60 54 50 47 43 41 41 42 40 39 38 37 35 33 33 32 31 30 28 27 26 24 23 23 22 19 17 14 10 6 3 5 10 15 13 8 6 6 6 7 5 4 4 3 1 359 358 359 0 358 357 359 359 352 342 333 326 317 303 282 260 252 257 264 266 263 256 250 250 252 250 246 245 246 249 248 244 239 236
105 98 89 80 72 64 58 52 49 46 41 37 37 39 38 36 36 35 33 32 32 31 31 29 27 26 26 24 23 21 20 19 18 16 12 7 5 8 16 22 20 17 16 14 13 13 11 9 8 7 7 7 6 8 9 6 5 8 8 5 359 352 340 321 299 281 263 252 253 261 268 267 263 258 256 258 256 249 243 242 246 250 246 240 237
107 104 97 84 73 65 56 52 48 44 40 35 34 37 37 34 34 34 32 31 30 30 30 28 27 26 26 25 24 22 20 20 20 18 14 10 9 14 23 27 25 24 24 23 22 21 18 16 13 12 14 15 16 17 17 16 15 16 16 17 18 17 15 10 2 25 62 69 251 263 271 269 269 270 269 269 270 263 249 239 239 245 248 246 239
111 111 107 91 76 66 57 51 47 44 40 34 32 35 36 33 33 32 31 30 29 29 29 28 27 27 27 26 25 24 23 22 21 19 16 13 15 20 25 27 26 26 26 26 26 26 25 23 20 19 20 21 23 24 24 23 23 24 25 27 28 30 33 32 28 31 43 51 52 41 357 307 287 279 277 280 283 279 264 247 239 238 242 244 241
121 120 116 100 83 72 59 50 46 44 39 32 30 33 34 33 32 32 32 31 29 28 28 27 27 27 27 27 25 24 23 22 21 18 16 15 17 21 24 26 26 26 27 26 26 26 27 27 25 24 24 25 27 29 29 28 28 29 31 33 35 36 38 38 36 34 36 41 48 52 51 42 8 293 286 297 297 288 274 256 242 236 236 237 236
133 126 119 107 92 82 67 52 47 44 38 32 29 30 32 32 32 32 33 32 30 28 26 26 26 26 26 26 25 24 23 22 20 17 15 14 15 17 21 24 25 25 26 26 26 26 27 27 27 28 27 28 30 32 32 31 31 32 33 34 36 39 41 43 45 45 43 42 45 50 55 59 60 54 19 330 310 292 271 250 230 221 222 224 222
146 132 122 117 110 92 75 59 51 44 35 29 27 28 29 31 31 32 33 32 30 28 26 26 26 25 25 23 22 22 23 24 21 16 13 12 12 14 19 23 23 24 25 26 26 28 28 27 27 28 28 28 29 30 33 34 34 34 35 35 35 37 39 41 43 46 48 48 47 48 51 57 61 63 63 62 62 61 313 227 200 189 196 206 204
161 148 133 129 127 105 81 69 59 44 31 25 24 25 27 29 31 31 32 31 30 28 26 26 26 26 25 23 20 19 20 22 21 17 14 13 13 14 18 21 19 20 23 25 26 28 28 27 27 27 27 27 27 28 30 32 34 36 36 36 37 36 36 36 37 38 39 42 45 47 48 51 55 58 63 68 71 73 78 96 132 146 160 179 189
175 166 152 146 140 117 87 75 65 45 28 22 21 23 27 29 30 31 32 32 30 27 26 26 25 25 26 25 22 20 18 17 17 17 17 17 16 16 18 19 18 18 19 22 26 27 27 28 28 27 26 26 27 28 29 30 32 34 35 36 38 39 39 39 39 37 36 36 37 40 44 47 51 54 59 65 69 72 78 85 91 99 109 123 138
190 180 172 169 160 125 80 66 55 37 29 25 24 26 29 29 28 29 32 33 32 28 26 26 25 24 25 24 24 22 20 17 15 14 16 17 18 18 17 15 17 18 18 21 25 26 26 27 27 27 26 26 27 28 29 30 30 32 34 36 37 39 40 41 41 41 40 40 39 37 38 42 46 52 59 66 71 73 77 84 89 92 92 93 94
201 195 188 186 178 144 66 47 41 35 34 35 36 36 35 31 28 27 29 32 33 30 27 25 25 24 24 24 22 22 21 20 17 15 15 15 17 20 19 16 16 19 20 24 27 27 26 25 26 26 26 28 29 28 28 29 30 30 32 34 36 37 39 40 41 42 43 45 45 44 43 41 42 47 56 64 70 73 74 76 80 83 84 85 84
206 202 190 186 187 160 79 58 53 48 47 51 52 47 40 33 27 25 26 29 30 29 27 26 24 22 23 23 21 20 21 21 20 19 18 17 16 19 22 21 21 22 21 23 26 28 27 26 25 26 25 26 29 29 28 27 28 29 31 32 34 36 37 38 39 41 43 45 47 48 47 47 47 48 51 54 58 63 66 68 70 72 74 75 76
195 196 190 190 192 159 94 79 73 64 60 60 56 49 42 35 27 22 23 25 27 27 26 25 24 21 21 22 21 19 20 21 21 21 21 20 19 20 22 24 26 27 24 22 23 25 27 27 26 26 26 25 26 28 28 28 27 27 28 30 31 33 35 36 38 40 41 43 45 47 47 47 48 50 52 52 52 52 53 55 57 60 63 67 71
173 187 192 193 193 167 106 88 82 73 67 60 50 43 40 35 27 21 20 22 25 25 24 24 23 21 19 19 20 18 19 21 22 22 21 19 18 18 21 24 25 25 24 23 22 23 25 27 27 26 25 25 26 27 28 28 28 26 26 27 28 30 32 34 36 39 40 41 43 45 47 47 48 50 51 53 53 54 55 54 52 52 54 57 63
168 189 196 195 197 195 138 102 91 75 65 55 42 34 34 32 26 21 19 20 23 24 23 22 22 20 18 18 18 17 18 20 22 22 21 19 18 19 22 24 22 21 20 20 20 21 23 26 27 25 22 22 25 27 27 27 27 27 26 26 26 28 30 32 34 36 38 39 40 42 45 47 49 50 51 52 52 53 54 55 55 55 55 56 60
185 195 197 196 200 206 187 155 152 205 27 34 25 21 26 27 26 22 18 17 21 23 22 21 19 17 17 17 16 17 17 18 20 21 20 19 19 22 25 25 21 19 19 18 16 17 20 24 26 24 21 21 24 26 26 25 25 25 26 27 27 27 28 30 31 33 35 37 38 40 43 46 48 49 50 52 52 52 52 53 53 54 54 56 59
184 188 193 196 200 205 206 203 215 236 256 356 9 0 8 20 24 22 17 14 15 18 19 19 16 13 13 14 15 15 14 14 17 20 20 17 17 20 24 25 23 21 20 18 16 15 16 20 23 22 21 22 24 24 24 25 25 24 25 26 28 28 28 29 30 32 33 34 35 37 40 44 47 49 50 51 52 52 52 51 51 53 54 55 57
184 184 191 198 203 214 226 226 228 237 244 269 335 326 327 0 19 21 16 9 8 11 14 15 12 9 9 10 11 12 11 10 14 18 18 16 16 17 20 23 23 22 21 19 18 16 14 15 17 18 19 21 21 19 19 20 21 22 23 25 27 29 29 28 29 31 32 33 34 35 37 40 44 49 51 52 51 50 50 50 50 51 53 56 59
196 193 199 207 216 230 237 229 224 230 235 243 284 286 280 317 1 16 14 7 3 5 8 10 8 4 5 8 9 9 8 9 12 15 15 14 14 15 17 20 23 23 21 20 21 21 18 14 12 12 14 15 14 13 14 14 14 15 16 19 24 28 29 28 27 28 30 32 33 35 36 37 40 44 49 50 49 48 49 50 51 52 55 56 59
209 206 210 216 223 231 230 219 216 226 231 236 250 248 256 290 328 359 8 5 4 2 360 2 3 359 360 5 8 8 7 9 12 15 14 13 12 13 15 18 21 22 21 20 23 25 23 19 15 12 11 10 10 9 9 9 8 8 8 10 16 22 27 29 28 26 27 29 31 33 34 35 36 39 42 43 44 45 47 49 50 52 53 55 57
220 216 217 220 223 222 216 209 217 232 238 239 242 243 250 271 297 330 349 357 2 0 354 355 358 355 355 0 5 6 7 9 13 15 14 12 12 12 12 13 18 20 20 19 21 24 24 22 20 17 15 13 12 10 8 6 5 4 5 6 9 15 22 28 29 27 27 28 27 27 28 29 31 35 38 38 38 39 41 44 47 49 50 52 54
226 222 221 222 223 221 214 211 220 235 244 249 255 260 256 260 283 312 326 334 348 354 351 351 354 354 353 355 360 4 6 7 9 13 14 12 10 10 10 11 13 16 18 17 18 20 21 21 20 19 18 16 14 10 7 4 3 4 6 8 10 13 20 27 29 28 28 28 26 24 24 23 25 28 33 35 35 36 37 39 41 44 47 50 52
227 223 220 221 225 226 224 223 226 234 243 255 261 262 258 262 281 303 314 317 329 341 344 346 352 356 354 354 357 1 4 4 5 8 10 10 8 7 8 9 10 12 15 14 14 15 17 17 17 16 15 14 13 9 6 5 5 7 10 14 15 16 20 25 26 24 23 22 20 19 18 18 18 21 26 29 30 31 33 36 38 40 43 47 50
227 221 218 221 227 229 228 227 230 234 240 253 262 264 264 271 284 300 311 312 315 325 334 338 345 352 355 355 357 359 1 3 3 4 5 5 4 4 5 6 6 8 11 12 11 12 13 13 11 10 11 12 11 8 6 7 10 11 13 17 18 17 20 23 22 19 16 15 15 15 14 14 14 15 20 25 27 26 28 30 32 34 37 43 49
229 225 223 226 232 235 233 230 233 237 240 248 258 264 269 276 285 297 308 310 310 315 323 328 334 345 354 356 356 357 359 0 1 2 2 0 359 359 2 5 4 5 8 10 10 10 11 11 9 9 10 13 12 8 7 10 14 15 16 17 18 17 19 20 18 15 13 13 14 14 13 13 13 13 14 19 24 27 28 30 30 29 30 35 45
233 231 230 232 235 237 234 233 236 241 243 245 251 260 270 278 284 292 303 309 310 314 319 322 326 337 350 354 354 354 356 355 355 357 358 356 354 353 356 1 4 4 6 9 9 8 9 8 8 10 13 14 12 10 10 12 15 16 16 16 17 17 17 17 15 14 14 13 12 11 10 11 13 13 13 14 20 28 32 33 32 31 28 27 36
231 232 234 234 234 234 234 236 240 244 246 247 249 256 266 274 278 284 295 304 310 316 322 326 328 333 340 345 347 351 352 349 348 350 352 351 350 348 349 355 0 2 3 7 9 8 7 6 5 9 15 17 14 13 13 13 13 14 15 16 15 16 15 14 13 12 12 11 10 9 10 10 10 11 12 13 16 21 32 36 36 33 28 25 29
237 238 237 237 238 237 238 240 242 244 247 250 251 255 263 269 273 279 288 294 298 306 314 321 326 329 331 332 335 340 344 344 343 343 343 343 344 344 344 349 355 357 358 2 6 7 7 5 3 7 15 19 17 16 15 14 13 11 11 12 14 14 13 11 10 9 8 6 6 8 9 8 8 9 11 14 16 16 16 28 34 32 27 25 32
244 245 242 241 242 242 242 243 244 245 249 253 253 255 261 267 271 277 282 284 287 293 299 304 309 314 319 323 324 327 332 337 339 338 337 336 336 337 338 343 349 352 352 355 0 5 6 5 3 7 13 18 19 18 17 16 14 12 9 8 8 10 10 9 6 4 2 1 2 4 6 6 6 6 7 10 13 15 14 6 0 5 10 14 17
247 248 246 243 241 238 239 241 243 245 250 254 253 252 257 265 272 276 279 281 283 286 290 294 298 302 306 311 314 316 322 329 334 335 332 329 328 329 332 336 341 345 346 346 351 358 1 2 3 5 8 13 16 17 17 17 16 14 12 8 3 1 2 3 1 360 358 356 356 359 0 1 3 6 6 6 8 12 14 10 353 334 327 335 344
Height
1547 1546 1545 1544 1543 1543 1543 1543 1542 1542 1541 1540 1539 1538 1536 1535 1534 1533 1531 1530 1528 1527 1525 1524 1523 1522 1520 1519 1517 1516 1514 1513 1511 1509 1508 1507 1505 1504 1502 1500 1499 1497 1496 1495 1494 1493 1491 1490 1489 1488 1488 1486 1485 1485 1484 1482 1481 1481 1480 1479 1478 1478 1477 1475 1473 1472 1472 1473 1475 1477 1479 1480 1481 1484 1486 1487 1487 1489 1491 1493 1495 1497 1499 1501 1504
1547 1547 1545 1545 1544 1544 1544 1543 1543 1543 1541 1540 1539 1538 1537 1535 1534 1533 1531 1530 1528 1527 1526 1524 1523 1522 1520 1519 1517 1515 1514 1512 1510 1508 1506 1505 1504 1502 1500 1498 1496 1494 1493 1491 1491 1489 1488 1486 1485 1484 1484 1482 1481 1481 1480 1479 1478 1477 1476 1475 1474 1473 1473 1472 1470 1469 1468 1468 1470 1472 1473 1475 1476 1478 1481 1483 1483 1484 1486 1488 1490 1492 1495 1497 1499
1548 1547 1546 1545 1545 1545 1545 1544 1544 1543 1542 1541 1540 1538 1537 1536 1534 1533 1531 1530 1529 1527 1526 1524 1523 1522 1520 1519 1517 1515 1514 1511 1509 1507 1505 1503 1502 1500 1498 1496 1494 1491 1490 1488 1487 1485 1484 1482 1481 1480 1479 1478 1477 1477 1476 1475 1474 1473 1472 1471 1470 1469 1468 1468 1467 1465 1464 1463 1465 1467 1468 1469 1471 1473 1476 1479 1480 1480 1481 1484 1485 1487 1489 1492 1494
1548 1547 1547 1546 1546 1546 1545 1545 1545 1544 1543 1542 1540 1539 1538 1537 1535 1534 1532 1531 1529 1527 1526 1525 1524 1522 1520 1519 1517 1515 1513 1511 1509 1506 1504 1502 1500 1498 1496 1494 1492 1490 1487 1485 1483 1482 1480 1479 1478 1477 1476 1475 1474 1473 1473 1472 1471 1469 1468 1467 1466 1464 1463 1463 1462 1461 1460 1459 1459 1460 1462 1464 1466 1469 1472 1474 1475 1476 1477 1479 1481 1482 1484 1487 1489
1548 1548 1547 1547 1547 1547 1546 1546 1546 1545 1544 1542 1541 1540 1539 1537 1536 1535 1533 1531 1530 1528 1527 1526 1524 1522 1520 1519 1517 1515 1513 1511 1508 1506 1504 1501 1499 1497 1495 1492 1490 1488 1486 1483 1481 1479 1477 1476 1475 1474 1473 1472 1470 1469 1469 1468 1467 1465 1464 1462 1461 1460 1459 1458 1457 1456 1455 1454 1454 1455 1457 1459 1461 1464 1466 1468 1469 1471 1472 1474 1475 1477 1479 1481 1484
1549 1549 1548 1548 1548 1548 1548 1547 1546 1545 1544 1543 1542 1541 1539 1538 1537 1535 1534 1532 1531 1529 1528 1526 1524 1522 1521 1519 1517 1515 1513 1511 1509 1506 1504 1501 1499 1496 1494 1491 1489 1486 1484 1482 1479 1477 1475 1474 1473 1472 1471 1469 1467 1466 1464 1463 1462 1461 1459 1458 1457 1456 1454 1453 1451 1450 1449 1449 1449 1450 1450 1453 1455 1456 1459 1462 1463 1465 1467 1468 1470 1471 1473 1476 1479
1551 1550 1550 1549 1549 1549 1548 1548 1547 1546 1545 1544 1543 1541 1540 1539 1538 1536 1534 1533 1531 1530 1529 1527 1525 1523 1521 1519 1517 1516 1513 1511 1509 1506 1503 1501 1498 1496 1493 1491 1488 1485 1483 1480 1478 1476 1474 1472 1471 1469 1468 1466 1464 1462 1461 1460 1458 1457 1456 1454 1453 1451 1450 1448 1446 1445 1444 1443 1444 1445 1445 1447 1449 1450 1452 1456 1458 1460 1461 1463 1464 1466 1468 1471 1475
1552 1552 1551 1550 1550 1549 1549 1548 1548 1547 1546 1544 1543 1542 1541 1540 1538 1537 1535 1533 1532 1531 1529 1528 1526 1524 1522 1520 1518 1516 1514 1511 1508 1506 1503 1501 1498 1495 1493 1490 1487 1484 1482 1479 1477 1474 1472 1470 1469 1467 1465 1463 1461 1459 1458 1456 1454 1452 1452 1451 1449 1447 1446 1444 1443 1442 1441 1439 1439 1440 1441 1442 1444 1445 1448 1451 1452 1452 1455 1457 1458 1460 1463 1466 1470
1553 1553 1552 1551 1551 1550 1550 1550 1549 1548 1547 1545 1544 1542 1541 1540 1539 1537 1536 1534 1533 1532 1530 1528 1526 1524 1522 1520 1518 1516 1514 1511 1508 1506 1504 1501 1498 1495 1492 1489 1486 1484 1481 1478 1476 1473 1471 1469 1466 1464 1462 1460 1458 1456 1455 1453 1450 1448 1447 1446 1445 1443 1442 1441 1439 1439 1438 1436 1434 1435 1437 1438 1439 1441 1442 1443 1444 1447 1451 1453 1453 1455 1459 1462 1464
1555 1554 1553 1552 1552 1552 1551 1551 1550 1549 1547 1546 1545 1544 1542 1541 1540 1538 1537 1535 1534 1532 1531 1528 1526 1525 1523 1521 1519 1516 1514 1512 1510 1508 1505 1502 1498 1495 1492 1489 1486 1483 1480 1477 1474 1472 1469 1467 1464 1462 1459 1456 1454 1452 1450 1449 1447 1445 1443 1442 1440 1439 1438 1437 1436 1435 1434 1434 1432 1432 1432 1432 1433 1435 1436 1438 1441 1445 1447 1448 1449 1452 1455 1456 1458
1556 1555 1554 1553 1553 1553 1552 1551 1551 1550 1548 1547 1546 1545 1544 1542 1541 1539 1538 1536 1534 1533 1531 1529 1527 1525 1523 1521 1519 1517 1515 1513 1511 1508 1505 1502 1499 1496 1492 1489 1486 1483 1479 1476 1473 1469 1467 1465 1462 1459 1456 1453 1450 1447 1445 1444 1442 1440 1439 1437 1436 1435 1434 1433 1432 1431 1430 1430 1430 1429 1428 1426 1427 1430 1433 1435 1437 1440 1442 1443 1445 1447 1448 1449 1451
1558 1556 1555 1555 1554 1554 1553 1552 1551 1550 1550 1549 1547 1546 1545 1543 1542 1540 1539 1537 1535 1533 1532 1530 1528 1526 1524 1522 1520 1517 1515 1513 1511 1508 1505 1503 1500 1496 1493 1489 1486 1482 1479 1475 1472 1468 1465 1462 1460 1457 1453 1450 1446 1443 1440 1439 1437 1436 1434 1432 1431 1431 1430 1429 1428 1427 1427 1426 1425 1425 1425 1425 1425 1427 1429 1431 1433 1435 1437 1439 1440 1441 1442 1443 1444
1559 1558 1557 1556 1555 1555 1554 1553 1552 1552 1551 1550 1549 1547 1546 1544 1543 1541 1539 1538 1536 1534 1533 1531 1529 1527 1525 1522 1520 1518 1515 1513 1511 1508 1505 1502 1499 1496 1493 1490 1486 1482 1478 1475 1471 1467 1464 1460 1457 1454 1451 1448 1444 1440 1437 1434 1432 1431 1429 1427 1426 1425 1425 1425 1424 1423 1422 1421 1420 1420 1421 1422 1422 1422 1424 1427 1429 1431 1432 1433 1434 1436 1437 1437 1438
1560 1559 1558 1558 1557 1556 1555 1555 1554 1553 1552 1551 1550 1549 1547 1545 1544 1542 1541 1539 1537 1535 1533 1531 1529 1527 1525 1523 1520 1518 1516 1513 1510 1508 1505 1502 1499 1496 1493 1489 1486 1483 1479 1475 1471 1467 1463 1459 1455 1452 1449 1446 1442 1438 1434 1430 1428 1426 1424 1422 1421 1420 1419 1419 1419 1419 1418 1417 1415 1415 1416 1418 1418 1418 1421 1423 1424 1424 1426 1427 1429 1431 1433 1434 1437
1561 1560 1559 1559 1559 1558 1557 1556 1555 1554 1553 1552 1551 1549 1548 1546 1545 1543 1541 1539 1537 1535 1533 1531 1529 1527 1525 1523 1521 1518 1516 1513 1511 1508 1505 1501 1498 1495 1492 1489 1486 1482 1479 1475 1471 1467 1463 1459 1455 1452 1448 1444 1441 1437 1432 1428 1424 1421 1419 1417 1416 1415 1414 1414 1414 1414 1413 1412 1411 1411 1412 1413 1413 1415 1417 1418 1418 1418 1421 1423 1425 1429 1432 1433 1435
1561 1561 1560 1560 1560 1559 1558 1557 1556 1555 1554 1552 1551 1550 1548 1547 1546 1544 1543 1541 1539 1536 1534 1532 1530 1528 1525 1523 1521 1518 1516 1513 1511 1508 1505 1501 1498 1494 1491 1488 1485 1481 1478 1474 1471 1467 1463 1459 1455 1451 1447 1444 1440 1436 1431 1426 1422 1418 1415 1413 1411 1410 1410 1410 1410 1409 1408 1408 1407 1407 1407 1408 1409 1410 1411 1412 1413 1414 1418 1420 1422 1425 1427 1428 1429
1562 1562 1562 1561 1561 1560 1559 1558 1557 1556 1554 1553 1552 1550 1549 1548 1547 1545 1544 1541 1539 1537 1534 1532 1530 1527 1525 1523 1520 1518 1516 1514 1511 1508 1505 1502 1498 1494 1490 1487 1484 1480 1477 1474 1470 1467 1464 1460 1456 1451 1447 1443 1438 1435 1430 1425 1420 1416 1412 1409 1407 1405 1405 1405 1404 1404 1403 1403 1403 1403 1403 1404 1405 1406 1406 1407 1408 1410 1413 1413 1414 1417 1420 1421 1424
1563 1563 1562 1562 1561 1561 1560 1559 1558 1557 1555 1554 1553 1552 1551 1549 1548 1546 1544 1542 1540 1537 1535 1533 1530 1528 1525 1523 1521 1519 1516 1514 1511 1508 1505 1502 1498 1494 1490 1487 1483 1480 1476 1473 1470 1467 1464 1460 1457 1452 1447 1442 1438 1434 1429 1424 1419 1414 1409 1405 1403 1401 1401 1399 1398 1399 1399 1399 1399 1399 1399 1399 1400 1401 1402 1402 1403 1405 1406 1406 1408 1411 1414 1415 1417
1564 1564 1563 1563 1562 1561 1561 1560 1559 1558 1557 1555 1554 1553 1552 1550 1549 1547 1545 1543 1540 1538 1535 1533 1531 1528 1526 1523 1521 1519 1517 1514 1512 1509 1506 1502 1499 1495 1491 1486 1483 1479 1476 1473 1470 1466 1463 1459 1456 1452 1447 1443 1438 1433 1429 1424 1419 1413 1408 1404 1399 1397 1396 1395 1394 1394 1395 1395 1395 1396 1396 1396 1396 1396 1397 1399 1400 1400 1400 1402 1404 1406 1407 1409 1413
1565 1564 1564 1563 1563 1562 1561 1561 1560 1559 1558 1557 1555 1554 1553 1552 1550 1548 1546 1543 1541 1538 1536 1533 1531 1529 1527 1524 1522 1520 1517 1515 1513 1510 1507 1503 1499 1495 1491 1487 1483 1480 1477 1474 1470 1466 1462 1458 1454 1451 1447 1442 1438 1433 1429 1424 1419 1414 1408 1403 1398 1394 1392 1391 1390 1390 1390 1391 1393 1393 1392 1392 1392 1392 1393 1394 1395 1395 1396 1398 1400 1400 1402 1405 1408
1565 1565 1564 1564 1563 1563 1562 1562 1561 1559 1559 1558 1557 1555 1554 1553 1551 1549 1546 1544 1542 1539 1537 1534 1532 1530 1527 1525 1523 1520 1518 1516 1513 1510 1507 1504 1500 1496 1492 1488 1484 1481 1478 1475 1471 1467 1462 1458 1454 1450 1446 1442 1438 1433 1429 1424 1419 1414 1408 1403 1399 1394 1390 1388 1387 1387 1387 1388 1389 1389 1389 1389 1388 1389 1389 1390 1391 1392 1393 1394 1396 1397 1398 1400 1402
1565 1565 1565 1564 1564 1563 1563 1562 1561 1560 1560 1559 1558 1556 1555 1553 1551 1549 1547 1545 1542 1540 1538 1536 1533 1531 1528 1526 1524 1521 1519 1517 1514 1511 1508 1505 1501 1497 1493 1490 1486 1483 1480 1476 1472 1468 1464 1460 1456 1452 1447 1443 1439 1434 1429 1425 1420 1414 1409 1404 1399 1394 1390 1387 1385 1384 1384 1384 1385 1385 1385 1385 1385 1385 1386 1387 1387 1388 1390 1391 1392 1394 1395 1396 1397
1566 1565 1565 1564 1564 1564 1563 1563 1562 1562 1561 1560 1559 1557 1555 1554 1552 1550 1548 1545 1543 1541 1539 1537 1534 1532 1529 1527 1524 1522 1520 1517 1515 1513 1510 1506 1502 1499 1495 1492 1489 1485 1481 1478 1474 1471 1467 1463 1459 1454 1449 1444 1440 1435 1430 1426 1420 1415 1410 1404 1399 1394 1390 1387 1384 1383 1382 1382 1382 1382 1382 1382 1382 1383 1383 1384 1384 1385 1386 1388 1389 1390 1392 1393 1394
1566 1566 1565 1565 1565 1564 1564 1563 1563 1562 1562 1561 1559 1558 1556 1554 1552 1550 1548 1546 1544 1542 1540 1537 1535 1532 1530 1528 1525 1523 1520 1518 1516 1514 1511 1507 1504 1500 1497 1494 1491 1487 1484 1480 1477 1473 1469 1465 1461 1457 1452 1446 1441 1436 1432 1427 1422 1416 1411 1405 1400 1395 1391 1388 1386 1384 1382 1380 1380 1380 1380 1380 1380 1380 1380 1381 1381 1382 1382 1383 1385 1387 1388 1390 1391
1566 1566 1565 1565 1565 1565 1564 1564 1564 1563 1562 1561 1560 1558 1556 1555 1553 1551 1549 1547 1545 1543 1541 1538 1536 1533 1531 1529 1526 1524 1521 1519 1516 1514 1511 1508 1505 1502 1499 1496 1493 1489 1486 1483 1479 1476 1472 1468 1464 1459 1454 1448 1443 1437 1433 1429 1424 1419 1413 1407 1402 1397 1394 1392 1390 1387 1384 1381 1380 1380 1380 1379 1379 1379 1379 1379 1379 1379 1379 1379 1381 1383 1385 1387 1389
1566 1566 1566 1566 1565 1565 1565 1565 1564 1563 1563 1562 1560 1559 1557 1555 1553 1552 1550 1548 1546 1544 1542 1540 1537 1535 1532 1530 1527 1525 1522 1519 1517 1515 1512 1509 1506 1503 1500 1497 1494 1491 1488 1485 1481 1477 1473 1469 1465 1460 1456 1451 1445 1440 1435 1431 1426 1421 1415 1410 1405 1401 1398 1395 1392 1390 1388 1387 1385 1383 1381 1380 1380 1378 1377 1377 1377 1377 1377 1377 1378 1380 1382 1384 1386
1566 1566 1566 1566 1565 1565 1565 1565 1564 1564 1563 1562 1561 1559 1557 1556 1554 1552 1551 1549 1547 1545 1543 1540 1538 1536 1533 1531 1529 1526 1523 1521 1518 1516 1513 1511 1508 1505 1502 1499 1496 1493 1489 1486 1482 1478 1474 1471 1467 1463 1458 1453 1448 1443 1438 1433 1428 1423 1418 1414 1410 1407 1404 1401 1397 1395 1393 1392 1390 1388 1385 1383 1381 1379 1378 1377 1376 1377 1377 1377 1377 1378 1379 1381 1382
1565 1566 1566 1566 1566 1566 1565 1565 1565 1564 1563 1562 1561 1559 1558 1556 1555 1553 1552 1550 1548 1546 1544 1541 1539 1537 1535 1532 1530 1528 1525 1522 1520 1518 1515 1513 1510 1506 1503 1500 1497 1494 1491 1488 1484 1480 1476 1472 1468 1463 1458 1454 1449 1444 1439 1435 1431 1426 1422 1418 1415 1412 1409 1406 1403 1400 1398 1397 1395 1393 1390 1387 1384 1381 1379 1378 1378 1379 1379 1379 1379 1378 1378 1380 1381
1565 1566 1566 1566 1566 1566 1565 1565 1565 1564 1563 1562 1561 1560 1558 1557 1555 1554 1553 1551 1549 1547 1545 1543 1541 1539 1536 1534 1532 1529 1527 1524 1522 1521 1519 1516 1512 1509 1506 1503 1500 1497 1494 1491 1487 1482 1478 1473 1468 1464 1459 1455 1451 1446 1442 1439 1435 1431 1427 1423 1420 1416 1413 1410 1407 1405 1404 1402 1400 1398 1395 1392 1388 1385 1383 1382 1382 1382 1382 1382 1382 1382 1380 1380 1382
1565 1565 1565 1566 1566 1565 1565 1565 1565 1564 1563 1562 1561 1560 1559 1557 1556 1555 1553 1552 1550 1549 1547 1544 1542 1541 1539 1536 1534 1531 1529 1527 1525 1523 1520 1518 1515 1512 1509 1506 1503 1500 1497 1493 1489 1484 1480 1475 1471 1467 1463 1459 1455 1451 1447 1444 1440 1436 1432 1429 1425 1421 1418 1415 1413 1411 1410 1407 1405 1402 1399 1396 1394 1391 1390 1388 1388 1387 1387 1386 1386 1385 1384 1383 1384
1565 1565 1565 1565 1565 1565 1565 1565 1564 1564 1563 1562 1561 1560 1559 1558 1557 1556 1554 1553 1551 1550 1548 1546 1544 1542 1540 1538 1536 1534 1532 1529 1526 1524 1521 1519 1516 1514 1511 1508 1505 1502 1499 1495 1491 1486 1482 1479 1475 1472 1468 1464 1460 1457 1453 1449 1445 1442 1438 1434 1431 1427 1424 1421 1419 1417 1414 1411 1409 1406 1403 1401 1400 1398 1396 1395 1394 1393 1392 1391 1390 1389 1389 1389 1389
1564 1564 1565 1565 1565 1565 1565 1564 1564 1564 1563 1562 1561 1560 1559 1558 1557 1556 1555 1554 1552 1551 1549 1548 1546 1544 1542 1540 1538 1536 1533 1530 1527 1525 1522 1520 1517 1515 1512 1510 1506 1504 1501 1497 1492 1489 1486 1482 1479 1476 1472 1469 1465 1462 1459 1455 1451 1448 1444 1440 1436 1433 1430 1427 1425 1422 1419 1416 1413 1411 1408 1407 1405 1404 1403 1402 1400 1399 1398 1397 1396 1395 1395 1395 1394
1563 1564 1564 1564 1564 1564 1564 1564 1564 1563 1562 1562 1561 1560 1560 1559 1558 1557 1556 1554 1553 1552 1550 1549 1547 1545 1543 1541 1539 1537 1534 1532 1529 1526 1523 1521 1518 1516 1514 1511 1508 1505 1502 1498 1494 1491 1489 1486 1483 1480 1477 1473 1470 1467 1463 1460 1457 1453 1449 1446 1442 1439 1436 1434 1431 1428 1425 1422 1419 1416 1414 1413 1411 1410 1408 1407 1406 1405 1404 1404 1404 1403 1402 1402 1401
1562 1563 1563 1563 1564 1564 1564 1563 1563 1563 1562 1562 1561 1560 1560 1559 1558 1557 1556 1555 1553 1552 1551 1549 1548 1546 1544 1542 1540 1538 1536 1533 1530 1527 1524 1522 1520 1517 1515 1512 1509 1506 1503 1499 1497 1494 1492 1489 1486 1483 1481 1478 1474 1471 1468 1464 1461 1458 1455 1451 1448 1445 1442 1439 1436 1433 1430 1428 1425 1423 1421 1419 1418 1416 1414 1413 1412 1411 1410 1410 1410 1410 1409 1409 1409
1562 1562 1562 1563 1563 1563 1563 1563 1562 1562 1562 1562 1561 1561 1560 1559 1558 1557 1556 1555 1554 1552 1551 1550 1548 1546 1545 1543 1541 1539 1537 1534 1531 1529 1526 1523 1521 1518 1516 1512 1509 1506 1504 1501 1499 1497 1495 1492 1489 1487 1484 1481 1478 1475 1472 1469 1466 1463 1460 1456 1453 1450 1447 1444 1441 1438 1436 1434 1431 1429 1428 1426 1424 1423 1421 1420 1418 1417 1417 1416 1416 1415 1415 1415 1415
1561 1561 1562 1562 1562 1563 1563 1562 1562 1562 1562 1561 1561 1560 1560 1559 1558 1557 1556 1555 1554 1553 1551 1550 1549 1547 1545 1543 1542 1540 1538 1535 1533 1530 1528 1525 1522 1519 1516 1513 1510 1508 1506 1503 1501 1500 1497 1495 1492 1490 1487 1485 1482 1479 1476 1473 1470 1467 1464 1462 1459 1455 1452 1449 1447 1444 1442 1439 1437 1435 1434 1432 1431 1429 1428 1426 1425 1424 1423 1423 1422 1421 1421 1421 1420
1561 1561 1561 1562 1562 1562 1562 1562 1562 1561 1561 1561 1561 1560 1560 1559 1558 1557 1556 1555 1554 1553 1552 1550 1549 1548 1546 1544 1542 1541 1538 1536 1534 1532 1529 1527 1524 1521 1518 1515 1513 1510 1508 1506 1503 1502 1499 1497 1495 1493 1490 1488 1485 1482 1480 1477 1474 1471 1469 1466 1463 1460 1458 1455 1452 1450 1447 1445 1443 1441 1439 1438 1437 1435 1434 1432 1431 1430 1429 1429 1428 1428 1427 1426 1426
1560 1560 1561 1561 1561 1561 1561 1561 1561 1561 1561 1560 1560 1560 1559 1559 1558 1557 1556 1555 1554 1553 1552 1551 1549 1548 1546 1545 1543 1541 1539 1538 1536 1533 1530 1528 1525 1522 1520 1517 1515 1512 1510 1508 1506 1503 1501 1500 1497 1495 1493 1490 1488 1485 1483 1480 1478 1475 1472 1470 1467 1465 1462 1460 1457 1455 1452 1450 1448 1447 1445 1444 1442 1441 1439 1438 1437 1436 1435 1435 1434 1433 1432 1432 1431
1559 1560 1560 1560 1560 1560 1560 1561 1561 1560 1560 1560 1560 1559 1559 1559 1558 1557 1556 1555 1554 1553 1552 1551 1549 1548 1546 1545 1543 1541 1540 1538 1536 1533 1531 1529 1527 1524 1522 1519 1517 1514 1512 1510 1507 1505 1503 1501 1500 1497 1495 1493 1490 1488 1486 1483 1481 1478 1476 1473 1471 1468 1466 1464 1461 1459 1457 1456 1454 1452 1451 1449 1448 1446 1445 1443 1442 1442 1441 1440 1439 1438 1437 1437 1436
1559 1559 1559 1559 1559 1560 1560 1560 1560 1559 1559 1559 1559 1559 1558 1558 1557 1557 1556 1555 1554 1553 1551 1550 1549 1548 1546 1545 1543 1541 1540 1538 1536 1534 1532 1530 1528 1526 1523 1521 1519 1516 1514 1511 1509 1507 1505 1503 1501 1499 1497 1495 1493 1490 1488 1486 1484 1481 1479 1477 1474 1472 1470 1468 1466 1464 1462 1461 1459 1457 1456 1454 1453 1451 1450 1449 1448 1447 1446 1445 1444 1444 1443 1443 1442
1558 1558 1558 1558 1559 1559 1558 1559 1559 1559 1558 1558 1558 1558 1558 1557 1557 1556 1555 1554 1553 1552 1551 1550 1549 1548 1546 1545 1543 1542 1540 1538 1536 1535 1533 1531 1529 1527 1525 1523 1520 1518 1516 1513 1511 1509 1507 1505 1503 1501 1499 1497 1495 1493 1490 1488 1486 1483 1481 1479 1477 1475 1474 1472 1470 1468 1467 1465 1464 1462 1461 1460 1458 1456 1455 1453 1453 1452 1451 1450 1450 1449 1448 1448 1448
1557 1557 1557 1557 1557 1557 1558 1558 1558 1558 1558 1557 1557 1557 1557 1556 1556 1555 1554 1554 1553 1552 1551 1550 1549 1547 1546 1545 1543 1542 1540 1538 1537 1535 1533 1532 1530 1528 1526 1524 1522 1520 1517 1515 1513 1511 1509 1507 1505 1503 1500 1498 1496 1494 1492 1490 1487 1485 1483 1481 1479 1478 1476 1475 1473 1472 1470 1469 1468 1466 1465 1464 1463 1461 1460 1458 1457 1456 1456 1455 1454 1454 1453 1453 1453
1555 1555 1556 1556 1556 1556 1556 1557 1557 1557 1556 1556 1556 1556 1556 1556 1555 1554 1553 1553 1552 1551 1550 1549 1548 1547 1546 1545 1543 1542 1540 1539 1537 1535 1534 1532 1531 1529 1527 1525 1523 1521 1519 1517 1515 1513 1511 1509 1507 1504 1502 1500 1498 1496 1493 1491 1489 1487 1485 1483 1481 1480 1479 1477 1476 1475 1473 1472 1471 1470 1469 1467 1466 1465 1464 1463 1462 1461 1460 1459 1458 1458 1458 1457 1457
1553 1554 1554 1555 1555 1555 1555 1555 1555 1555 1555 1555 1555 1555 1555 1554 1554 1553 1552 1552 1551 1550 1549 1548 1548 1547 1545 1544 1543 1541 1540 1539 1537 1536 1534 1532 1531 1529 1527 1526 1524 1522 1520 1518 1516 1514 1512 1510 1508 1506 1504 1502 1500 1498 1495 1493 1490 1488 1486 1484 1483 1482 1481 1479 1478 1477 1476 1475 1474 1473 1471 1470 1469 1468 1467 1466 1465 1465 1464 1463 1463 1462 1462 1462 1461
1552 1552 1553 1553 1553 1554 1554 1554 1554 1554 1554 1554 1554 1554 1554 1553 1553 1552 1551 1551 1550 1549 1548 1548 1547 1546 1545 1544 1543 1541 1540 1539 1537 1535 1534 1532 1531 1529 1528 1526 1524 1523 1521 1519 1517 1515 1513 1511 1509 1507 1505 1503 1501 1499 1497 1494 1492 1490 1488 1486 1485 1484 1482 1481 1481 1480 1479 1478 1476 1475 1474 1472 1471 1470 1469 1468 1468 1468 1467 1467 1466 1466 1465 1465 1465
1551 1551 1551 1552 1552 1552 1552 1552 1552 1552 1553 1553 1553 1552 1552 1552 1551 1551 1550 1550 1549 1548 1548 1547 1546 1545 1544 1543 1542 1541 1539 1538 1537 1535 1534 1532 1531 1529 1528 1526 1525 1523 1521 1520 1518 1516 1514 1512 1510 1508 1506 1504 1502 1500 1498 1496 1494 1492 1490 1488 1487 1486 1485 1484 1483 1482 1481 1480 1478 1477 1476 1474 1473 1472 1471 1470 1470 1470 1470 1469 1469 1468 1468 1468 1468
1549 1549 1550 1550 1550 1550 1551 1551 1551 1551 1551 1551 1551 1551 1551 1550 1550 1550 1549 1548 1548 1547 1546 1546 1545 1544 1543 1542 1541 1540 1539 1537 1536 1535 1533 1532 1531 1529 1528 1526 1525 1523 1522 1520 1519 1517 1515 1513 1511 1509 1507 1505 1503 1501 1499 1497 1495 1493 1492 1490 1489 1488 1487 1486 1485 1484 1483 1481 1480 1479 1478 1476 1475 1473 1473 1472 1472 1472 1471 1471 1471 1471 1471 1470 1470
1548 1548 1548 1548 1548 1549 1549 1549 1549 1549 1549 1549 1549 1549 1549 1549 1549 1548 1547 1547 1547 1546 1545 1545 1544 1543 1542 1541 1540 1539 1538 1536 1535 1534 1533 1532 1530 1529 1528 1526 1525 1523 1522 1521 1519 1517 1516 1514 1512 1510 1508 1506 1504 1502 1500 1498 1497 1495 1493 1492 1491 1490 1488 1487 1486 1485 1484 1483 1482 1481 1480 1478 1477 1476 1475 1474 1473 1473 1473 1473 1473 1473 1472 1472 1472
1546 1546 1546 1546 1546 1547 1547 1547 1547 1547 1547 1547 1548 1548 1547 1547 1547 1546 1546 1546 1545 1544 1544 1543 1542 1542 1541 1540 1539 1538 1537 1536 1534 1533 1532 1531 1530 1528 1527 1526 1524 1523 1522 1521 1519 1518 1516 1515 1513 1511 1509 1507 1506 1504 1502 1500 1498 1496 1495 1493 1492 1491 1490 1489 1488 1487 1486 1485 1484 1483 1482 1480 1479 1478 1477 1476 1475 1474 1474 1474 1474 1474 1474 1474 1474
1544 1544 1544 1544 1545 1545 1545 1545 1545 1545 1545 1545 1545 1545 1545 1545 1545 1544 1544 1544 1543 1543 1542 1541 1541 1540 1539 1538 1538 1537 1536 1535 1533 1532 1531 1530 1529 1528 1527 1525 1524 1523 1522 1520 1519 1518 1517 1515 1514 1512 1510 1508 1507 1505 1503 1501 1499 1497 1496 1495 1493 1492 1491 1490 1489 1488 1487 1486 1485 1484 1483 1482 1481 1480 1479 1478 1477 1476 1476 1475 1475 1475 1475 1475 1475
1542 1542 1542 1542 1542 1543 1543 1543 1543 1543 1543 1543 1543 1543 1543 1543 1543 1542 1542 1541 1541 1540 1540 1539 1539 1538 1537 1537 1536 1535 1534 1533 1532 1531 1530 1529 1528 1527 1526 1525 1523 1522 1521 1520 1519 1518 1517 1515 1514 1513 1511 1509 1508 1506 1504 1503 1501 1499 1497 1496 1494 1493 1492 1491 1490 1489 1488 1487 1486 1485 1484 1483 1482 1481 1480 1479 1478 1478 1477 1477 1476 1476 1476 1476 1476